Friday Harbor, WA
on Friday, December 14, 2012

Friday
Previous Day Next Day
Daily Summary
 ActualAverageRecord
Temperature
Mean Temperature °F °F  
Max Temperature 43°F 43°F 55°F (2002)
Min Temperature 32°F 35°F 21°F (2008)
Degree Days
Heating Degree Days 28    
Moisture
Dew Point 36°F   
Average Humidity 86    
Maximum Humidity 100    
Minimum Humidity 70    
Precipitation
Precipitation 0.06 in in in ()
Wind
Wind Speed 3 mph   
Max Wind Speed 10 mph   
Max Gust Speed mph   
Visibility 9 miles   
Events Rain   
Averages and records for this station are not official NWS values.
Key: T is trace of precipitation, MM is missing value
Source: NWS Daily Summary
Seasonal Weather Averages
Time(PST)TemperatureDew PointHumidity Pressure Visibility Wind DirectionWind SpeedGust SpeedPrecipitationEvents Conditions
12:53 AM 42.1°F 39.9°F 92% 29.78 in 6.0 miles ESE 5.8 mph - 0.02 in Rain Light Rain
1:30 AM 42.8°F 39.2°F 87% 29.78 in 7.0 miles Calm Calm - 0.03 in Rain Light Rain
1:40 AM 42.8°F 39.2°F 87% 29.78 in 10.0 miles Calm Calm - 0.03 in Rain Light Rain
1:53 AM 41.0°F 39.9°F 96% 29.78 in 8.0 miles Calm Calm - 0.03 in Rain Light Rain
2:07 AM 41.0°F 39.2°F 93% 29.78 in 5.0 miles Calm Calm - 0.00 in Rain Light Rain
2:11 AM 41.0°F 39.2°F 93% 29.78 in 5.0 miles NW 3.5 mph - 0.00 in Rain Light Rain
2:18 AM 41.0°F 39.2°F 93% 29.78 in 5.0 miles NNW 3.5 mph - 0.01 in Rain Light Rain
2:25 AM 41.0°F 39.2°F 93% 29.78 in 5.0 miles North 3.5 mph - 0.01 in Rain Light Rain
2:35 AM 41.0°F 39.2°F 93% 29.78 in 10.0 miles Calm Calm - 0.01 in Rain Light Rain
2:40 AM 41.0°F 39.2°F 93% 29.78 in 10.0 miles Calm Calm - 0.01 in Rain Light Rain
2:53 AM 39.9°F 39.0°F 97% 29.78 in 10.0 miles Calm Calm - 0.01 in   Overcast
3:11 AM 41.0°F 39.2°F 93% 29.79 in 10.0 miles West 3.5 mph - N/A   Overcast
3:53 AM 39.9°F 37.9°F 93% 29.79 in 10.0 miles Variable 3.5 mph - 0.00 in   Overcast
4:11 AM 39.2°F 37.4°F 93% 29.79 in 10.0 miles Variable 4.6 mph - N/A   Overcast
4:53 AM 39.0°F 36.0°F 89% 29.80 in 10.0 miles WNW 5.8 mph - N/A   Mostly Cloudy
5:53 AM 39.0°F 36.0°F 89% 29.81 in 10.0 miles Variable 4.6 mph - N/A   Overcast
6:53 AM 39.0°F 35.1°F 86% 29.83 in 10.0 miles Calm Calm - N/A   Mostly Cloudy
7:53 AM 37.9°F 35.1°F 89% 29.84 in 10.0 miles Calm Calm - N/A   Mostly Cloudy
8:19 AM 35.6°F 33.8°F 93% 29.85 in 10.0 miles Calm Calm - N/A   Scattered Clouds
8:53 AM 35.1°F 33.1°F 92% 29.87 in 10.0 miles Calm Calm - N/A   Clear
9:53 AM 39.9°F 36.0°F 86% 29.88 in 10.0 miles West 4.6 mph - N/A   Partly Cloudy
10:53 AM 42.1°F 33.1°F 70% 29.89 in 10.0 miles Variable 3.5 mph - N/A   Mostly Cloudy
11:53 AM 42.1°F 34.0°F 73% 29.90 in 10.0 miles Variable 5.8 mph - N/A   Mostly Cloudy
12:53 PM 42.1°F 34.0°F 73% 29.91 in 10.0 miles Calm Calm - N/A   Overcast
1:43 PM 42.8°F 33.8°F 70% 29.90 in 10.0 miles Variable 5.8 mph - N/A   Mostly Cloudy
1:53 PM 43.0°F 35.1°F 74% 29.90 in 10.0 miles Variable 3.5 mph - N/A   Mostly Cloudy
2:04 PM 42.8°F 33.8°F 70% 29.90 in 10.0 miles Variable 3.5 mph - N/A   Mostly Cloudy
2:32 PM 42.8°F 33.8°F 70% 29.91 in 10.0 miles Variable 3.5 mph - N/A   Overcast
2:39 PM 42.8°F 33.8°F 70% 29.91 in 10.0 miles Calm Calm - N/A   Overcast
2:53 PM 42.1°F 34.0°F 73% 29.92 in 10.0 miles Calm Calm - N/A   Overcast
3:53 PM 42.1°F 35.1°F 76% 29.93 in 10.0 miles North 3.5 mph - N/A   Overcast
4:53 PM 37.0°F 33.1°F 86% 29.94 in 10.0 miles Calm Calm - N/A   Clear
5:53 PM 32.0°F 30.9°F 96% 29.94 in 10.0 miles Calm Calm - N/A   Clear
6:53 PM 32.0°F 32.0°F 100% 29.93 in 10.0 miles Calm Calm - N/A   Clear
7:53 PM 34.0°F 30.9°F 89% 29.94 in 10.0 miles Calm Calm - N/A   Clear
8:53 PM 39.9°F 36.0°F 86% 29.93 in 10.0 miles SE 8.1 mph - N/A   Clear
9:53 PM 39.9°F 36.0°F 86% 29.94 in 10.0 miles ESE 4.6 mph - N/A   Mostly Cloudy
10:53 PM 39.9°F 35.1°F 83% 29.91 in 10.0 miles East 9.2 mph - N/A   Mostly Cloudy
11:53 PM 39.0°F 35.1°F 86% 29.88 in 10.0 miles East 10.4 mph - N/A   Mostly Cloudy
Moon Phase
Dec. 14 Dec. 20 Dec. 28 Jan. 04 Jan. 11
Sunrise:07:57 AM (PST) Moon Rise:09:02 AM (PST)12/14
Sunset:04:16 PM (PST) Moon Set:06:22 PM (PST)12/14

Copyright © 2014 The Weather Underground, Inc.